Miscellaneous Local Product
Issued by NWS North Platte, NE

Home | Current Version | Previous Version | Text Only | Print | Product List | Glossary On
Versions: 1 2 3 4 5 6 7 8 9 10 11 12 13 14 15 16 17 18 19 20 21 22 23 24 25 26 27 28 29 30 31 32 33 34 35 36 37 38 39 40 41 42 43 44 45 46 47 48 49 50
977
AXUS43 KLBF 072210
MISLBF


WESTERN AND NORTH CENTRAL NEBRASKA HOURLY WEATHER ROUNDUP
NATIONAL WEATHER SERVICE NORTH PLATTE NE
400 PM CST SUN FEB 07 2016

NOTE: "FAIR" INDICATES FEW OR NO CLOUDS BELOW 12,000 FEET WITH NO
SIGNIFICANT WEATHER AND/OR OBSTRUCTIONS TO VISIBILITY.

NOTE: STATIONS NOT REPORTING VARIABLES SUCH AS SKY/WEATHER OR
PRESSURE ARE PROVIDED BY THE NEBRASKA DEPARTMENT OF
ROADS...RAWS...AND APRS NETWORKS...AND ARE NOT UNDER
NATIONAL WEATHER SERVICE QUALITY CONTROL.

...OBSERVATIONS IN AND NEAR THE EASTERN PANHANDLE OF NEBRASKA...

CITY           SKY/WX    TMP DP  RH WIND       PRES   REMARKS
PINE RIDGE     MOSUNNY   38   2  22 NW30G44   30.19R WCI  26
CHADRON        MOSUNNY   38  14  37 NW29G41   30.25R WCI  26
ALLIANCE       SUNNY     32  16  51 NW25G35   30.22R WCI  19
SIDNEY         CLOUDY    31  14  49 N37G47    30.27R WCI  15
BIG SPRINGS      N/A     36  24  63 NW12        N/A  WCI  28
$$

...OBSERVATIONS IN NORTH CENTRAL NEBRASKA...

CITY           SKY/WX    TMP DP  RH WIND       PRES   REMARKS
VALENTINE      CLOUDY    38  16  40 NW33G52   30.06R WCI  25
THEDFORD       MOSUNNY   40  13  32 NW30G53   30.10R WCI  29
AINSWORTH      MOSUNNY   39  16  38 NW41G53   30.05R WCI  26
O`NEILL        CLOUDY    37  24  59 NW36G45   30.00R WCI  23
ORD            MOSUNNY   38  19  46 NW36G46   30.02S WCI  25
BROKEN BOW     CLOUDY    41  14  33 NW32G48   30.06S
BUTTE            N/A     35  25  67 W35G47      N/A  WCI  21
CHAMBERS         N/A     38  22  51 N18G28      N/A  WCI  28
EWING            N/A     36  28  72 NW16G26     N/A  WCI  26
$$

...OBSERVATIONS IN SOUTHWEST NEBRASKA AND FAR NORTHEAST COLORADO...

CITY           SKY/WX    TMP DP  RH WIND       PRES   REMARKS
WRAY           CLOUDY    35  19  50 NW23G32   30.28S WCI  23
HOLYOKE        FAIR      34  21  60 NW25G37   30.27S WCI  21
IMPERIAL       SUNNY     36  19  50 NW28G39   30.23S WCI  23
OGALLALA       SUNNY     36  15  42 NW28G38   30.22R WCI  23
NORTH PLATTE   SUNNY     39  17  41 NW28G38   30.15R WCI  28
MCCOOK         SUNNY     39  22  50 NW24      30.20S WCI  28
LEXINGTON      SUNNY     40  18  40 NW35G40   30.13R WCI  28
PAXTON           N/A     37  23  58 W13         N/A  WCI  29
STAPLETON        N/A     38  14  37 W10G17      N/A  WCI  31
GOTHENBURG       N/A     40  14  34 NW17        N/A  WCI  31
CALLAWAY         N/A     38  15  38 NW26        N/A  WCI  26
$$

...OBSERVATIONS IN CENTRAL LINCOLN COUNTY AREA...

CITY           SKY/WX    TMP DP  RH WIND       PRES   REMARKS
N.P. AIRPORT   SUNNY     39  17  41 NW28G38   30.15R WCI  28
N.P. DOWNTOWN    N/A     39  18  43 NW15G28     N/A  WCI  30
N.P. SOUTHEAST   N/A     40  17  40 NW10G21     N/A  WCI  33
N.P. HILLCREST   N/A     40  19  42 NW26G36     N/A  WCI  29
$$

...SOME OBSERVATIONS FROM AROUND THE REGION...

CITY           SKY/WX    TMP DP  RH WIND       PRES   REMARKS
DENVER         MOSUNNY   29  21  72 E15       30.27F WCI  18
LARAMIE          N/A     31  18  58 NW16      30.25R WCI  20
CHEYENNE       SUNNY     31  17  56 N25G38    30.24R WCI  17
SCOTTSBLUFF    CLOUDY    34  17  50 NW21G30   30.30R WCI  22
RAPID CITY     SUNNY     39   5  24 NW47G61   30.17R WCI  25
BISMARCK       PTSUNNY   36  17  46 NW25G40   30.03R WCI  24
PIERRE         CLOUDY    38  17  42 NW36G46   30.02R WCI  25
WINNER         CLOUDY    40  21  46 NW36G46   30.03R WCI  27
SIOUX FALLS    CLOUDY    33  24  69 NW30G43   29.85R WCI  19
OMAHA          FLURRIES  36  29  75 NW18G32   29.96R WCI  26
GRAND ISLAND   CLOUDY    38  21  50 NW22G30   30.06S WCI  27
KANSAS CITY    PTSUNNY   49  19  30 NW21G29   29.98F
WICHITA        MOSUNNY   52  19  27 NW22G32   30.16S
OKLAHOMA CITY  MOSUNNY   59  24  26 N16       30.14S
LIBERAL        SUNNY     48  18  29 N23G33    30.27S
HAYS           PTSUNNY   43  21  42 NW18G29   30.20S
GOODLAND       CLOUDY    36  19  50 NW22G31   30.27S WCI  25
$$




USA.gov is the U.S. government's official web portal to all federal, state and local government web resources and services.